Simultaneous Nadir Overpasses (SNOs) Predictions

Prediction of SNOs between NOAA-20 and METOP-C Satellite Orbit:

Table of predicted SNOs for the next 14.0 days since TLE Epoch: 8/2/2022
Index Date (NOAA-20) Time (NOAA-20) Lat,Lon (NOAA-20) SZA (NOAA-20 ) Date (METOP-C) Time (METOP-C) Lat,Lon (METOP-C) SZA (METOP-C ) Distance(km) Time Diff (sec)
1 08/15/2022 19:08:03 73.37,-116.47 59.72 08/15/2022 19:09:11 73.34,-114.16 59.56 73.36 68
2 08/15/2022 19:58:45 -73.26, 51.09 120.39 08/15/2022 19:59:55 -73.20, 52.86 120.56 57.05 70
3 08/15/2022 20:49:27 73.08,-141.19 59.42 08/15/2022 20:50:39 73.02,-140.21 59.29 32.47 72
4 08/15/2022 21:40:09 -72.97, 26.35 120.69 08/15/2022 21:41:22 -72.93, 26.93 120.78 19.28 73
5 08/15/2022 22:30:51 72.78,-165.94 59.12 08/15/2022 22:32:05 72.79,-166.03 59.12 3.02 74
6 08/15/2022 23:21:36 -72.83, 1.28 120.83 08/15/2022 23:22:46 -72.80, 1.33 120.86 2.86 70
7 08/16/2022 00:12:21 72.79, 168.67 59.15 08/16/2022 00:13:26 72.82, 168.69 59.16 3.29 65
8 08/16/2022 01:03:05 -72.78, -24.00 120.85 08/16/2022 01:04:08 -72.78, -24.06 120.86 1.75 63
9 08/16/2022 01:53:51 72.80, 143.27 59.18 08/16/2022 01:54:48 72.80, 143.30 59.16 0.98 57



Historial Predications of SNOs between NOAA-20 and METOP-C
